STARLINK-32765 (62747 NORAD) Tracking and Keplerian Element Data

This shows tracking and keplerian element data for the satellite.

Feedback or suggestion? Click here.




ElementValue
Catalog62747
NameSTARLINK-32765
Epoch Orbit221
Epoch Day35.25001157
Epoch Year2025
RAAN253.8409
Inclination42.9996
Eccentricity0.0001769
Argument of Perigee277.6497
Mean Anonmoly101.1294
Mean Motion15.6434831
Decay Rate-0.01489605
L11 62747U 25014N 25035.25001157 -.01489605 00000+0 -16919-1 0 9995
L22 62747 42.9996 253.8409 0001769 277.6497 101.1294 15.64348310 2211



Live tracking and technical data element details for STARLINK-32765 (NORAD 62747). STARLINK-32765 can be tracked NOW for your location showing map with azimuth and elevation plus other details from your city location.







IsCatalogInMostPopularTable: catalog: 62747, numindb: 3
Update: records affected: 1



GetName: 62747 STARLINK-32765

Hit Count: updated at: Sun, 09 Feb 2025 13:59:40 GMT